| time (UTC) | temp C | wind direction | speed KPH | gust KPH | rain 1hr cm | rain 24hr cm | rain mn cm | humidity % | barometer mb |
| 20260505034536 | 13 | 33 | 0.0 | 0.0 | 0.00 | 0.00 | 0.43 | 56 | 1001.2 |
| 20260505033013 | 14 | 34 | 0.0 | 0.0 | 0.00 | 0.00 | 0.43 | 55 | 1000.8 |
| 20260505031553 | 15 | 34 | 0.0 | 0.0 | 0.00 | 0.00 | 0.43 | 53 | 1000.6 |
| 20260505030044 | 15 | 34 | 0.0 | 0.0 | 0.00 | 0.00 | 0.43 | 53 | 1000.6 |
| 20260505024521 | 15 | 34 | 0.0 | 0.0 | 0.00 | 0.00 | 0.43 | 52 | 1000.2 |
| 20260505023007 | 16 | 34 | 0.0 | 0.0 | 0.00 | 0.00 | 0.43 | 49 | 1000.1 |
| 20260505021551 | 16 | 34 | 0.0 | 0.0 | 0.00 | 0.00 | 0.43 | 47 | 1000.1 |
| 20260505020035 | 16 | 34 | 0.0 | 0.0 | 0.00 | 0.00 | 0.43 | 44 | 1000.0 |
| 20260505014517 | 16 | 34 | 0.0 | 0.0 | 0.00 | 0.00 | 0.43 | 49 | 1000.1 |
| 20260505013006 | 17 | 34 | 0.0 | 0.0 | 0.00 | 0.00 | 0.43 | 51 | 1000.3 |
| 20260505011538 | 17 | 34 | 0.0 | 0.0 | 0.00 | 0.00 | 0.43 | 48 | 1000.3 |
| 20260505010026 | 17 | 34 | 0.0 | 0.0 | 0.00 | 0.00 | 0.43 | 45 | 1000.3 |
| 20260505004514 | 17 | 34 | 0.0 | 0.0 | 0.00 | 0.00 | 0.43 | 44 | 1000.1 |
| 20260505003057 | 17 | 35 | 1.6 | 0.0 | 0.00 | 0.00 | 0.43 | 40 | 1000.3 |
| 20260505001527 | 18 | 355 | 4.8 | 0.0 | 0.00 | 0.00 | 0.43 | 40 | 1000.4 |
| 20260505000007 | 18 | 101 | 6.4 | 0.0 | 0.00 | 0.00 | 0.43 | 40 | 1000.5 |
| 20260504234605 | 17 | 76 | 8.0 | 0.0 | 0.00 | 0.00 | 0.43 | 49 | 1000.5 |
| 20260504233034 | 15 | 36 | 4.8 | 0.0 | 0.00 | 0.00 | 0.43 | 59 | 1000.9 |
| 20260504231516 | 13 | 66 | 4.8 | 0.0 | 0.00 | 0.00 | 0.43 | 67 | 1000.8 |
| 20260504230002 | 14 | 96 | 0.0 | 0.0 | 0.00 | 0.00 | 0.43 | 78 | 1001.0 |
| 20260504224553 | 13 | 96 | 0.0 | 0.0 | 0.00 | 0.00 | 0.43 | 76 | 1001.2 |
| 20260504223038 | 12 | 24 | 1.6 | 0.0 | 0.00 | 0.00 | 0.43 | 71 | 1001.2 |
| 20260504221525 | 13 | 57 | 3.2 | 0.0 | 0.00 | 0.00 | 0.41 | 65 | 1001.8 |
| 20260504220018 | 16 | 59 | 9.7 | 0.0 | 0.00 | 0.00 | 0.13 | 50 | 1002.5 |
| 20260504214551 | 20 | 56 | 3.2 | 0.0 | 0.00 | 0.00 | 0.00 | 35 | 1000.7 |
| 20260504213045 | 20 | 188 | 3.2 | 0.0 | 0.00 | 0.00 | 0.00 | 28 | 1000.4 |
| 20260504211513 | 21 | 209 | 1.6 | 0.0 | 0.00 | 0.00 | 0.00 | 29 | 1000.4 |
| 20260504210004 | 21 | 209 | 1.6 | 0.0 | 0.00 | 0.00 | 0.00 | 29 | 1000.5 |
| 20260504204600 | 22 | 209 | 4.8 | 0.0 | 0.00 | 0.00 | 0.00 | 27 | 1000.6 |
| 20260504203034 | 23 | 209 | 3.2 | 0.0 | 0.00 | 0.00 | 0.00 | 26 | 1000.6 |
| 20260504201518 | 23 | 210 | 3.2 | 0.0 | 0.00 | 0.00 | 0.00 | 27 | 1000.6 |
| 20260504200006 | 23 | 217 | 3.2 | 0.0 | 0.00 | 0.00 | 0.00 | 26 | 1000.8 |
| 20260504194551 | 23 | 186 | 3.2 | 0.0 | 0.00 | 0.00 | 0.00 | 26 | 1000.7 |
| 20260504193100 | 23 | 167 | 3.2 | 0.0 | 0.00 | 0.00 | 0.00 | 26 | 1001.0 |
| 20260504191534 | 22 | 198 | 4.8 | 0.0 | 0.00 | 0.00 | 0.00 | 26 | 1001.2 |
| 20260504190014 | 23 | 200 | 4.8 | 0.0 | 0.00 | 0.00 | 0.00 | 25 | 1001.3 |
| 20260504184509 | 22 | 185 | 3.2 | 0.0 | 0.00 | 0.00 | 0.00 | 26 | 1001.6 |
| 20260504183102 | 22 | 195 | 3.2 | 0.0 | 0.00 | 0.00 | 0.00 | 27 | 1001.9 |
| 20260504181525 | 22 | 213 | 6.4 | 0.0 | 0.00 | 0.00 | 0.00 | 28 | 1002.0 |
| 20260504180018 | 22 | 198 | 4.8 | 0.0 | 0.00 | 0.00 | 0.00 | 28 | 1002.2 |
| 20260504174513 | 21 | 209 | 4.8 | 0.0 | 0.00 | 0.00 | 0.00 | 29 | 1002.2 |
| 20260504173050 | 21 | 212 | 3.2 | 0.0 | 0.00 | 0.00 | 0.00 | 30 | 1002.4 |
| 20260504171513 | 20 | 212 | 4.8 | 0.0 | 0.00 | 0.00 | 0.00 | 33 | 1002.8 |
| 20260504170105 | 20 | 222 | 3.2 | 0.0 | 0.00 | 0.00 | 0.00 | 32 | 1002.8 |
| 20260504081543 | 11 | 227 | 0.0 | 0.0 | 0.00 | 0.00 | 0.00 | 40 | 1003.6 |
| 20260504044508 | 15 | 227 | 0.0 | 0.0 | 0.00 | 0.00 | 0.00 | 33 | 1004.1 |
| 20260504043102 | 15 | 227 | 0.0 | 0.0 | 0.00 | 0.00 | 0.00 | 34 | 1004.1 |
| 20260504041524 | 15 | 227 | 0.0 | 0.0 | 0.00 | 0.00 | 0.00 | 32 | 1004.1 |
| 20260504040020 | 15 | 227 | 0.0 | 0.0 | 0.00 | 0.00 | 0.00 | 31 | 1004.1 |